Location: Newark
(49.3808°N, 3.1844°E)
Time: 14:06:02
(UTC+00:00)

Vanguard 1 Rocket - Pass Details

Date: 20 November 2019
Orbit: 650 x 4226 km, 34.3° (Epoch: 05 December)

Event Time Altitude Azimuth Distance (km) Brightness Sun altitude
Rises 03:02:58 0° 217° (SW) 3,069 - -38.9°
Reaches altitude 10° 03:08:03 10° 167° (SSE) 2,047 - -38.1°
Maximum altitude 03:08:14 10° 165° (SSE) 2,048 - -38.0°
Drops below altitude 10° 03:08:24 10° 162° (SSE) 2,052 - -38.0°
Exits shadow 03:10:55 - 133° (SE) 2,407 9.9 -37.6°
Sets 03:13:44 0° 113° (ESE) 3,239 10.9 -37.2°
